Mojave, CA

11:44 PM PDT on June 21, 2018 (GMT -0700)
Mojave

Weather History for KMHV - October, 2017

Change the Weather History Date:

Saturday, October 7, 2017

  Actual Average Record
Temperature  
Mean Temperature 71 °F -  
Max Temperature 91 °F 82 °F 96 °F (1964)
Min Temperature 51 °F 52 °F 40 °F (1979)
Cooling Degree Days 6    
Growing Degree Days 21 (Base 50)    
Moisture  
Dew Point 17 °F    
Average Humidity 14    
Maximum Humidity 22    
Minimum Humidity 7    
Precipitation  
Precipitation 0.00 in - - ()
Sea Level Pressure  
Sea Level Pressure 29.94 in    
Wind  
Wind Speed 10 mph (West)    
Max Wind Speed 23 mph    
Max Gust Speed 31 mph    
Visibility 10 miles    
Events      
Averages and records for this station are not official NWS values.
T = Trace of Precipitation, MM = Missing Value Source: NWS Daily Summary

Daily Weather History Graph

Daily Weather History Graph

Search for Another Location

Airport or City:

Astronomy

Oct. 07, 2017 Rise Set
Actual Time 6:52 AM PDT 6:27 PM PDT
Civil Twilight 6:26 AM PDT 6:53 PM PDT
Nautical Twilight 5:57 AM PDT 7:22 PM PDT
Astronomical Twilight 5:28 AM PDT 7:51 PM PDT
Moon 8:13 PM PDT (10/7) 8:48 AM PDT (10/7)
Length of Visible Light 12h 26m
Length of Day
11h 35m
Waning Gibbous, 95% of the Moon is Illuminated
Oct 7
Waning Gibbous
Oct 12
Last Quarter
Oct 19
New
Oct 27
First Quarter
Nov 3
Full

Hourly Weather History & Observations

Time (PDT) Temp. Dew Point Humidity Pressure Visibility Wind Dir Wind Speed Gust Speed Precip Events Conditions
12:00 AM 59.0 °F 14.0 °F 17% 30.06 in 10.0 mi NNW 12.7 mph - N/A   Clear
12:20 AM 59.0 °F 14.0 °F 17% 30.05 in 10.0 mi NW 12.7 mph - N/A   Clear
12:40 AM 59.0 °F 12.2 °F 16% 30.05 in 10.0 mi NW 11.5 mph - N/A   Clear
1:00 AM 59.0 °F 12.2 °F 16% 30.04 in 10.0 mi NW 11.5 mph - N/A   Clear
1:20 AM 59.0 °F 14.0 °F 17% 30.04 in 10.0 mi NNW 11.5 mph - N/A   Clear
1:40 AM 59.0 °F 12.2 °F 16% 30.04 in 10.0 mi NW 11.5 mph - N/A   Clear
2:00 AM 59.0 °F 14.0 °F 17% 30.04 in 10.0 mi NNW 11.5 mph - N/A   Clear
2:20 AM 59.0 °F 14.0 °F 17% 30.04 in 10.0 mi NNW 12.7 mph - N/A   Clear
2:40 AM 57.2 °F 14.0 °F 18% 30.03 in 10.0 mi NNW 10.4 mph - N/A   Clear
3:00 AM 55.4 °F 14.0 °F 20% 30.02 in 10.0 mi NNW 8.1 mph - N/A   Clear
3:20 AM 55.4 °F 14.0 °F 20% 30.02 in 10.0 mi Calm Calm - N/A   Clear
3:40 AM 53.6 °F 12.2 °F 19% 30.02 in 10.0 mi West 4.6 mph - N/A   Clear
4:00 AM 53.6 °F 12.2 °F 19% 30.02 in 10.0 mi WNW 5.8 mph - N/A   Clear
4:20 AM 51.8 °F 12.2 °F 21% 30.01 in 10.0 mi NW 5.8 mph - N/A   Clear
4:40 AM 53.6 °F 12.2 °F 19% 30.01 in 10.0 mi NW 5.8 mph - N/A   Clear
5:00 AM 51.8 °F 12.2 °F 21% 30.01 in 10.0 mi NW 5.8 mph - N/A   Clear
5:20 AM 51.8 °F 12.2 °F 21% 30.00 in 10.0 mi Calm Calm - N/A   Clear
5:40 AM 51.8 °F 12.2 °F 21% 30.00 in 10.0 mi WNW 5.8 mph - N/A   Clear
6:00 AM 51.8 °F 12.2 °F 21% 30.00 in 10.0 mi North - - N/A   Clear
6:20 AM 51.8 °F 12.2 °F 21% 30.00 in 10.0 mi NW 6.9 mph - N/A   Clear
6:40 AM 51.8 °F 12.2 °F 21% 30.00 in 10.0 mi NW 6.9 mph - N/A   Clear
7:00 AM 51.8 °F 14.0 °F 22% - 10.0 mi North - - N/A   Clear
7:20 AM 51.8 °F 14.0 °F 22% 30.00 in 7.0 mi Calm Calm - N/A   Clear
7:40 AM 53.6 °F 14.0 °F 21% 30.00 in 6.0 mi Calm Calm - N/A   Haze
8:00 AM 60.8 °F 15.8 °F 17% 30.01 in 6.0 mi Calm Calm - N/A   Haze
8:20 AM 66.2 °F 15.8 °F 14% 30.01 in 10.0 mi Calm Calm - N/A   Clear
8:40 AM 66.2 °F 15.8 °F 14% 30.00 in 10.0 mi Calm Calm - N/A   Clear
9:00 AM 68.0 °F 15.8 °F 13% 30.01 in 10.0 mi Calm Calm - N/A   Clear
9:20 AM 68.0 °F 15.8 °F 13% 30.01 in 10.0 mi Calm Calm - N/A   Clear
9:40 AM 69.8 °F 17.6 °F 14% 30.01 in 10.0 mi South 4.6 mph - N/A   Clear
10:00 AM 71.6 °F 17.6 °F 13% 30.01 in 10.0 mi SE 5.8 mph - N/A   Clear
10:20 AM 73.4 °F 17.6 °F 12% 30.00 in 10.0 mi SE 5.8 mph - N/A   Clear
10:40 AM 75.2 °F 15.8 °F 11% 30.00 in 10.0 mi SSE 5.8 mph - N/A   Clear
11:00 AM 75.2 °F 15.8 °F 11% 30.00 in 10.0 mi SE 3.5 mph - N/A   Clear
11:20 AM 77.0 °F 15.8 °F 10% 29.99 in 10.0 mi Calm Calm - N/A   Clear
11:40 AM 78.8 °F 15.8 °F 9% 29.99 in 10.0 mi Calm Calm - N/A   Clear
12:00 PM 80.6 °F 17.6 °F 10% 29.98 in 10.0 mi Calm Calm - N/A   Clear
12:20 PM 82.4 °F 17.6 °F 9% 29.97 in 10.0 mi East 4.6 mph - N/A   Clear
12:40 PM 82.4 °F 17.6 °F 9% 29.96 in 10.0 mi Variable 6.9 mph - N/A   Clear
1:00 PM 82.4 °F 17.6 °F 9% 29.94 in 10.0 mi South 5.8 mph - N/A   Clear
1:20 PM 84.2 °F 17.6 °F 8% 29.93 in 10.0 mi Variable 5.8 mph - N/A   Clear
1:40 PM 86.0 °F 17.6 °F 8% 29.92 in 10.0 mi SSW 6.9 mph - N/A   Clear
2:00 PM 86.0 °F 17.6 °F 8% 29.91 in 10.0 mi SE 9.2 mph - N/A   Clear
2:20 PM 86.0 °F 17.6 °F 8% 29.90 in 10.0 mi South 9.2 mph - N/A   Clear
2:40 PM 87.8 °F 17.6 °F 8% 29.89 in 10.0 mi SE 8.1 mph 13.8 mph N/A   Clear
3:00 PM 87.8 °F 17.6 °F 8% 29.88 in 10.0 mi SW 9.2 mph - N/A   Clear
3:20 PM 89.6 °F 17.6 °F 7% 29.87 in 10.0 mi SW 8.1 mph - N/A   Clear
3:40 PM 91.4 °F 21.2 °F 8% 29.86 in 10.0 mi West 16.1 mph - N/A   Clear
4:00 PM 89.6 °F 19.4 °F 8% 29.86 in 10.0 mi West 18.4 mph - N/A   Clear
4:20 PM 89.6 °F 17.6 °F 7% 29.86 in 10.0 mi West 17.3 mph - N/A   Clear
4:40 PM 87.8 °F 17.6 °F 8% 29.86 in 10.0 mi WNW 20.7 mph - N/A   Clear
5:00 PM 86.0 °F 23.0 °F 10% 29.85 in 10.0 mi WNW 18.4 mph 25.3 mph N/A   Clear
5:20 PM 84.2 °F 23.0 °F 11% 29.85 in 10.0 mi WNW 20.7 mph 28.8 mph N/A   Clear
5:40 PM 82.4 °F 24.8 °F 12% 29.85 in 10.0 mi WNW 20.7 mph - N/A   Clear
6:00 PM 80.6 °F 26.6 °F 14% 29.85 in 10.0 mi WNW 20.7 mph 28.8 mph N/A   Clear
6:20 PM 78.8 °F 24.8 °F 14% 29.85 in 10.0 mi West 16.1 mph - N/A   Clear
6:40 PM 77.0 °F 26.6 °F 16% 29.84 in 10.0 mi West 13.8 mph - N/A   Clear
7:00 PM 77.0 °F 24.8 °F 14% 29.84 in 10.0 mi SW 15.0 mph - N/A   Clear
7:20 PM 75.2 °F 24.8 °F 15% 29.83 in 10.0 mi WSW 13.8 mph - N/A   Clear
7:40 PM 75.2 °F 24.8 °F 15% 29.83 in 10.0 mi WSW 15.0 mph 21.9 mph N/A   Clear
8:00 PM 73.4 °F 26.6 °F 18% 29.83 in 10.0 mi WSW 21.9 mph - N/A   Clear
8:20 PM 75.2 °F 23.0 °F 14% 29.82 in 10.0 mi West 23.0 mph 31.1 mph N/A   Clear
8:40 PM 73.4 °F 23.0 °F 15% 29.82 in 10.0 mi West 23.0 mph - N/A   Clear
9:00 PM 73.4 °F 21.2 °F 14% 29.82 in 10.0 mi West 17.3 mph 25.3 mph N/A   Clear
9:20 PM 75.2 °F 17.6 °F 11% 29.82 in 10.0 mi West 17.3 mph 23.0 mph N/A   Clear
9:40 PM 73.4 °F 15.8 °F 11% 29.82 in 10.0 mi West 12.7 mph - N/A   Clear
10:00 PM 73.4 °F 14.0 °F 10% 29.82 in 10.0 mi WSW 12.7 mph - N/A   Clear
10:20 PM 73.4 °F 17.6 °F 12% 29.81 in 10.0 mi WSW 19.6 mph 26.5 mph N/A   Clear
10:40 PM 75.2 °F 12.2 °F 9% 29.82 in 10.0 mi West 13.8 mph 24.2 mph N/A   Clear
11:00 PM 73.4 °F 12.2 °F 10% 29.80 in 10.0 mi West 23.0 mph - N/A   Clear
11:20 PM 73.4 °F 12.2 °F 10% 29.81 in 10.0 mi West 18.4 mph 24.2 mph N/A   Clear
11:40 PM 73.4 °F 15.8 °F 11% 29.82 in 10.0 mi WNW 19.6 mph 26.5 mph N/A   Clear